FW1585 Weather Reports


time (UTC)temp
C
wind
direction
speed
KPH
gust
KPH
rain 1hr
cm
rain 24hr
cm
rain mn
cm
humidity
%
barometer
mb
20260502151536 15 238 35.4 49.9 0.00 0.00 0.00 39 1010.8
20260502123054 1 193 4.8 8.0 0.00 0.00 0.00 86 1012.3
20260502121553 0 188 4.8 8.0 0.00 0.00 0.00 87 1012.3
20260502114546 0 192 6.4 9.7 0.00 0.00 0.00 87 1012.3
20260502113040 -1 186 6.4 11.3 0.00 0.00 0.00 87 1012.4
20260502111545 -1 167 4.8 8.0 0.00 0.00 0.00 87 1012.3
20260502110038 0 164 4.8 12.9 0.00 0.00 0.00 86 1012.2
20260502104536 -1 165 8.0 9.7 0.00 0.00 0.00 86 1012.4
20260502103038 0 167 8.0 11.3 0.00 0.00 0.00 85 1012.7
20260502101531 0 154 6.4 11.3 0.00 0.00 0.00 84 1012.9
20260502091524 0 200 4.8 9.7 0.00 0.00 0.00 83 1013.3
20260502071514 0 206 4.8 8.0 0.00 0.00 0.00 82 1014.4
20260502070019 0 205 4.8 9.7 0.00 0.00 0.00 81 1014.5
20260502064505 0 210 4.8 9.7 0.00 0.00 0.00 79 1014.6
20260502063005 1 210 6.4 11.3 0.00 0.00 0.00 79 1014.8
20260502061600 1 205 3.2 9.7 0.00 0.00 0.00 78 1014.9
20260502060056 1 209 6.4 9.7 0.00 0.00 0.00 76 1015.0
20260502054601 1 213 3.2 9.7 0.00 0.00 0.00 75 1015.0
20260502053052 1 207 1.6 8.0 0.00 0.00 0.00 72 1015.0
20260502051545 2 204 4.8 8.0 0.00 0.00 0.00 69 1015.0
20260502050042 3 199 4.8 9.7 0.00 0.00 0.00 65 1014.9
20260502044541 4 201 8.0 11.3 0.00 0.00 0.00 65 1015.1
20260502043041 5 191 6.4 11.3 0.00 0.00 0.00 62 1015.1
20260502041542 5 176 3.2 9.7 0.00 0.00 0.00 61 1015.3
20260502040040 5 178 8.0 11.3 0.00 0.00 0.00 61 1015.2
20260502034540 5 163 6.4 11.3 0.00 0.00 0.00 62 1015.0
20260502033045 4 162 4.8 8.0 0.00 0.00 0.00 63 1015.2
20260502031539 5 149 3.2 6.4 0.00 0.00 0.00 59 1015.5
20260502030039 5 130 3.2 8.0 0.00 0.00 0.00 57 1015.5
20260502024538 7 129 3.2 8.0 0.00 0.00 0.00 51 1015.5
20260502023040 8 128 4.8 8.0 0.00 0.00 0.00 45 1015.3
20260502021537 9 107 3.2 4.8 0.00 0.00 0.00 43 1015.1
20260502020036 10 104 3.2 4.8 0.00 0.00 0.00 42 1015.0
20260502014535 11 104 3.2 4.8 0.00 0.00 0.00 39 1014.9
20260502013042 11 104 1.6 4.8 0.00 0.00 0.00 37 1014.8
20260502011535 12 104 0.0 3.2 0.00 0.00 0.00 40 1014.9
20260502010036 12 104 3.2 4.8 0.00 0.00 0.00 37 1014.8
20260502004551 13 79 1.6 4.8 0.00 0.00 0.00 33 1014.9
20260502003032 13 212 1.6 9.7 0.00 0.00 0.00 33 1014.9
20260502001531 13 36 1.6 9.7 0.00 0.00 0.00 33 1014.9
20260502000047 13 39 3.2 12.9 0.00 0.00 0.00 33 1014.9
20260501234532 13 265 6.4 11.3 0.00 0.00 0.00 33 1014.9
20260501233028 13 32 1.6 14.5 0.00 0.00 0.00 33 1015.1
20260501231537 13 18 8.0 16.1 0.00 0.00 0.00 34 1015.1
20260501230031 13 5 3.2 20.9 0.00 0.00 0.00 33 1015.1
20260501224524 13 72 1.6 16.1 0.00 0.00 0.00 35 1015.2
20260501223023 13 118 1.6 12.9 0.00 0.00 0.00 35 1015.2
20260501221522 13 288 1.6 20.9 0.00 0.00 0.00 34 1015.3
20260501220021 13 11 9.7 17.7 0.00 0.00 0.00 35 1015.3
20260501214522 13 31 4.8 24.1 0.00 0.00 0.00 35 1015.4
20260501213019 13 45 9.7 20.9 0.00 0.00 0.00 36 1015.6
20260501211525 13 355 16.1 22.5 0.00 0.00 0.00 36 1015.6
20260501210015 13 360 12.9 20.9 0.00 0.00 0.00 35 1015.8
20260501204514 12 324 8.0 22.5 0.00 0.00 0.00 36 1016.1
20260501203013 12 26 9.7 22.5 0.00 0.00 0.00 38 1016.1
20260501201512 12 360 11.3 22.5 0.00 0.00 0.00 37 1016.3
20260501200011 12 298 14.5 25.7 0.00 0.00 0.00 38 1016.4
20260501194513 11 24 9.7 22.5 0.00 0.00 0.00 41 1016.5
20260501193019 11 308 8.0 24.1 0.00 0.00 0.00 42 1016.6
20260501191506 11 360 16.1 20.9 0.00 0.00 0.00 41 1016.7
20260501190005 11 69 3.2 24.1 0.00 0.00 0.00 42 1016.7
20260501184502 11 13 8.0 27.4 0.00 0.00 0.00 42 1016.7
20260501183112 10 350 11.3 24.1 0.00 0.00 0.00 43 1016.8
20260501181559 10 360 11.3 25.7 0.00 0.00 0.00 42 1016.8
20260501180058 10 5 14.5 24.1 0.00 0.00 0.00 44 1016.9
20260501174638 10 355 12.9 20.9 0.00 0.00 0.00 45 1016.9
20260501173102 10 45 14.5 20.9 0.00 0.00 0.00 48 1017.2
20260501171553 9 295 11.3 22.5 0.00 0.00 0.00 49 1017.3
20260501170059 8 324 9.7 17.7 0.00 0.00 0.00 51 1017.4
20260501164600 8 274 11.3 17.7 0.00 0.00 0.00 53 1017.5
20260501163040 7 40 8.0 17.7 0.00 0.00 0.00 54 1017.5
20260501161540 7 105 1.6 12.9 0.00 0.00 0.00 58 1017.6
20260501160036 6 281 1.6 12.9 0.00 0.00 0.00 58 1017.7
20260501154555 6 20 8.0 14.5 0.00 0.00 0.00 59 1017.8
20260501153042 5 249 3.2 12.9 0.00 0.00 0.00 59 1017.8